Погода в Малом Полпине

Россия / Брянская область     53°16′38″N   34°37′21″E
темп.,
°C
ветер,
м/с
пор.,
м/с
влажн.,
%
обл.,
%
осадки,
мм/ч
давл.,
гПа
погр.,
м
15 августа, пн
пн1500:00+17в39895 0.0 1018180
03:00+16всв388820 0.0 1018157
06:00+16всв3108590 0.0 1018194
09:00+18всв31073100 0.0 1018306
12:00+26в4645100 0.0 1017795
15:00+28в464296 0.0 10161283
18:00+26в4751100 0.0 1016867
21:00+20всв31273100 0.0 1017288
16 августа, вт
вт1600:00+20всв41265100 0.0 1016287
03:00+19всв41162100 0.0 1016267
06:00+18всв51356100 0.0 1015361
09:00+22в51450100 0.0 1016479
12:00+26вюв6114197 0.0 1016854
15:00+25в41047100 0.0 1016775
18:00+24в41049100 0.0 1016503
21:00+22всв41252100 0.0 1016370
17 августа, ср
ср1700:00+22всв41345100 0.0 1015376
03:00+20всв31051100 0.0 1014298
06:00+19всв3105797 0.0 1013287
09:00+21в41157100 0.0 1014421
12:00+23в386698 0.0 1013318
15:00+28в4741100 0.0 1013959
18:00+24всв41157100 0.0 1014548
21:00+22всв41360100 0.0 1013436
18 августа, чт
чт1800:00+20всв31164100 0.1 1013336
03:00+19св396997 0.1 1013232
06:00+19всв31062100 0.0 1014282
09:00+22всв4115381 0.0 1014431
12:00+28всв5835100 0.0 10141197
15:00+29всв683487 0.0 10131349
18:00+27всв594111 0.0 10141193
21:00+21св412538 0.0 1014336
19 августа, пт
пт1900:00+19св3126344 0.0 1014316
03:00+18св3116510 0.0 1013283
06:00+17св411697 0.0 1014289
09:00+22всв48585 0.0 1014430
12:00+27в684634 0.0 10141130
15:00+29в574284 0.0 10141703
18:00+26в585232 0.0 10141092
21:00+21св412735 0.1 1015343